Theta_e
347 352 350 353 350 349 351 351 350 344 343 344 348 348 348 348 349 350 346 348 349 348 345 344 342 341 342 343 342 345 344 343 342 341 341 344 345 346
352 351 352 349 348 349 348 353 351 349 346 351 349 350 350 350 349 349 349 348 349 349 347 345 342 343 344 344 345 348 347 345 343 342 341 341 343 345
351 348 350 351 351 352 352 352 351 353 351 349 349 348 348 348 351 351 351 350 350 349 347 348 345 344 346 345 345 346 348 347 344 341 341 341 341 343
351 351 351 349 352 350 351 351 350 352 350 350 350 350 351 350 347 349 354 353 351 350 352 353 349 349 349 354 352 347 347 349 348 347 343 340 340 341
351 351 351 351 352 350 349 352 350 351 349 352 353 351 351 351 350 350 349 350 348 346 347 352 352 352 353 352 350 350 346 350 349 344 340 337 338 340
353 353 351 350 350 351 350 352 350 350 353 351 351 352 352 354 352 352 351 350 350 347 349 351 350 353 354 351 349 349 350 350 348 343 341 342 343 343
349 350 352 352 351 350 350 349 348 348 348 349 351 352 353 352 353 352 349 348 344 351 351 352 352 355 354 355 353 351 351 351 348 348 345 347 351 350
351 351 350 351 350 352 351 351 350 352 352 350 351 352 352 352 348 339 340 345 349 350 350 350 349 349 345 352 353 352 351 351 351 351 349 347 347 351
351 351 351 350 349 348 346 348 347 347 347 348 346 339 337 335 336 338 344 348 349 347 347 348 346 347 345 352 350 351 351 351 352 352 352 351 349 349
348 350 348 344 340 341 343 344 340 339 331 330 332 334 337 338 337 336 342 343 343 344 337 344 347 343 344 349 343 347 349 347 347 349 351 352 352 352
343 341 337 328 325 336 336 334 334 325 322 329 331 334 337 340 340 341 339 340 339 341 330 337 341 336 342 347 335 340 338 340 339 340 348 351 349 352
328 322 320 319 318 318 319 316 315 319 326 328 335 330 329 329 329 334 328 327 324 330 329 336 336 337 335 338 333 330 322 320 329 337 340 346 347 347
327 320 317 316 317 318 317 318 321 324 324 324 322 321 320 322 321 320 320 320 324 322 317 330 316 317 324 323 321 319 316 325 332 334 334 331 329 325
323 318 316 316 318 319 318 320 322 322 320 318 316 315 316 317 317 316 317 317 319 319 315 315 313 313 314 317 317 316 320 323 318 313 314 316 318 317
316 315 314 316 319 317 317 318 320 318 316 315 313 313 313 313 314 315 314 315 316 314 312 310 309 311 313 314 315 317 312 313 309 307 308 310 312 316
313 313 314 315 315 315 315 315 313 312 311 310 310 309 309 309 309 309 309 309 310 309 306 306 307 308 310 311 314 307 307 307 308 310 311 311 313 312
310 312 312 312 311 310 309 308 307 307 308 309 309 309 308 308 307 307 307 306 305 304 305 305 305 306 304 306 306 305 305 305 308 307 305 305 306 307
313 312 311 312 310 310 310 309 307 308 309 308 307 306 306 306 305 305 304 303 302 303 304 304 303 301 301 302 303 305 303 305 304 303 303 304 303 302
312 314 311 311 309 310 309 307 306 307 306 305 305 304 303 303 303 302 301 301 301 302 301 302 301 300 301 301 301 303 302 302 301 301 300 301 301 302
312 310 309 309 308 307 307 306 305 305 304 304 303 302 301 301 300 300 300 299 299 300 300 300 299 299 299 299 299 300 300 300 299 299 299 299 299 300
308 308 308 307 307 306 306 305 304 303 303 302 301 300 299 299 298 298 298 298 297 297 297 298 297 296 296 297 297 297 297 297 297 298 298 298 299 299
307 307 306 306 306 305 304 303 303 302 301 300 299 298 297 297 297 297 297 296 296 295 296 296 296 296 296 296 296 297 296 297 297 297 298 298 298 299
306 306 305 305 305 304 303 302 301 300 300 299 297 296 296 296 296 295 295 295 295 295 295 295 295 295 295 296 296 296 296 297 297 297 297 297 298 298
Wind_Speed
3 9 9 8 11 11 12 9 1 4 6 6 5 5 7 9 10 10 15 13 17 12 9 8 9 9 9 10 10 11 10 8 7 6 5 6 7 8
5 4 7 9 10 9 10 14 12 6 1 3 3 5 10 15 14 19 16 16 12 15 15 11 9 10 10 9 9 11 11 10 8 6 5 6 6 7
3 1 3 5 8 7 10 11 16 11 6 9 11 16 19 20 16 10 18 22 19 22 19 20 14 11 17 17 12 9 10 10 9 6 6 4 5 5
7 3 4 3 5 6 8 10 9 9 10 12 17 22 17 12 15 9 19 22 18 17 21 19 17 21 23 27 26 16 9 10 11 10 6 5 3 4
9 7 6 4 5 5 5 7 9 9 12 10 14 16 10 17 19 18 20 22 21 23 20 19 21 21 23 23 23 17 6 9 11 10 8 6 3 3
4 3 6 7 5 4 5 4 6 8 9 12 15 16 11 13 15 21 24 24 26 22 20 22 19 22 19 21 21 14 5 8 11 10 9 10 11 10
7 6 6 7 3 3 5 6 8 8 8 9 10 14 15 21 18 18 22 23 24 15 26 24 25 21 22 20 19 11 8 10 12 11 10 11 13 13
7 5 5 2 3 2 0 5 8 9 9 7 6 10 13 13 20 22 18 17 8 18 23 23 22 23 23 20 20 13 7 11 19 16 16 15 15 15
6 5 4 3 4 2 4 5 7 7 7 7 8 10 13 17 13 13 17 17 14 18 19 14 22 24 22 18 22 21 16 19 21 19 18 16 15 15
4 4 4 1 2 2 3 4 6 7 9 7 7 11 12 14 11 11 13 14 11 11 24 9 23 25 18 16 22 24 23 23 22 22 22 19 19 16
6 6 4 5 7 5 3 4 4 6 8 10 13 8 6 13 12 11 19 20 12 9 25 15 20 24 15 14 25 25 23 23 23 27 23 19 21 17
11 10 8 9 9 8 8 9 9 12 15 14 24 21 20 19 18 16 17 19 17 7 23 15 18 17 9 13 23 24 29 27 24 27 23 23 24 24
12 11 8 7 8 9 10 9 8 9 13 15 15 16 19 21 20 18 18 21 20 16 24 12 24 18 9 14 23 24 29 30 26 21 23 26 26 29
11 8 6 6 6 6 7 7 8 10 10 14 17 20 21 19 16 16 15 17 19 20 21 22 14 21 20 9 13 30 26 22 28 36 36 36 34 32
7 6 5 4 6 5 5 5 4 7 10 13 17 17 16 16 14 14 11 10 13 17 22 23 22 20 19 20 22 22 24 26 31 39 37 36 34 32
5 7 6 6 6 8 6 6 8 9 10 13 15 14 13 17 20 21 21 19 16 20 20 22 25 20 22 20 15 22 24 17 34 35 36 31 29 27
7 8 5 4 6 6 9 10 10 13 16 16 16 17 18 19 21 19 20 21 22 27 27 28 26 19 21 16 18 25 27 31 30 30 35 34 30 29
7 8 8 10 8 9 11 14 13 14 13 13 14 15 17 18 18 19 19 20 21 23 24 26 27 29 25 14 19 18 29 24 26 31 28 29 35 33
3 13 11 11 14 16 16 15 14 10 11 13 13 13 12 14 17 18 19 19 20 19 20 21 27 26 20 10 17 14 31 28 31 29 29 27 30 37
6 15 14 12 11 11 12 12 11 10 12 12 13 12 13 15 16 17 18 19 19 19 19 19 23 21 18 17 19 23 20 27 30 32 36 37 35 33
15 14 13 12 9 8 9 8 9 12 11 9 9 9 11 12 13 14 15 16 16 19 18 21 22 21 22 21 15 22 29 30 26 30 34 32 34 42
14 13 11 10 8 7 6 7 8 7 7 6 6 8 9 10 11 12 12 14 15 15 15 18 23 23 23 19 20 24 26 30 33 31 26 25 31 25
11 10 9 6 6 6 7 6 6 6 4 4 5 6 7 7 7 7 9 11 13 16 19 21 23 21 20 21 23 26 28 30 30 29 32 34 35 36
Wind_Direction
350 352 345 6 353 9 13 22 66 172 220 243 259 285 314 322 327 326 345 341 336 331 333 358 14 15 17 19 7 0 349 339 328 317 289 261 256 257
278 336 19 7 9 6 2 27 37 38 49 9 357 325 331 340 332 305 321 341 345 348 345 337 345 358 4 5 6 8 2 358 346 330 312 260 250 253
249 301 350 0 343 350 3 12 22 38 33 350 350 355 359 358 334 300 321 329 330 359 8 1 331 337 349 343 335 335 345 355 359 356 353 305 245 252
250 278 303 306 330 329 0 7 5 3 11 351 350 354 3 12 340 3 16 25 29 16 17 21 14 349 344 349 340 312 307 330 348 349 353 349 294 284
247 243 245 249 256 306 326 337 349 355 2 357 344 359 23 11 359 357 358 349 354 354 353 351 351 355 356 358 341 330 274 326 340 353 2 27 21 325
317 315 262 274 275 277 298 311 330 334 351 1 352 349 3 6 359 1 351 352 352 354 349 350 4 9 9 18 22 44 30 347 355 5 18 23 12 3
287 296 338 278 273 282 300 310 323 328 332 343 348 343 349 352 359 354 348 344 348 13 354 3 17 21 24 21 20 16 13 10 4 5 8 7 9 360
276 327 329 287 233 173 230 356 351 337 336 335 336 336 335 344 340 344 359 356 351 3 354 5 16 15 14 19 17 8 352 4 359 352 338 334 341 351
254 292 271 289 309 333 19 61 63 51 49 9 358 346 324 341 352 10 10 6 344 10 7 4 10 359 11 22 24 32 36 12 14 14 7 347 329 322
215 204 203 235 10 69 106 84 64 48 27 12 341 327 328 333 333 347 357 357 12 13 13 359 3 356 12 30 32 30 22 18 12 9 7 8 0 350
107 93 96 92 81 75 48 50 31 22 21 27 14 349 18 61 62 45 29 26 11 8 16 5 7 356 357 2 8 10 10 7 6 10 6 5 360 4
112 100 90 85 79 73 62 43 36 27 23 38 83 69 61 56 51 49 44 42 24 345 358 356 7 16 341 347 1 0 360 4 4 14 20 25 20 12
109 97 90 77 74 58 53 46 39 44 66 77 70 65 60 61 62 58 50 45 45 43 16 26 24 20 11 334 341 349 1 9 20 16 6 7 5 8
124 109 86 58 51 73 56 73 92 96 82 71 63 52 50 49 51 51 50 55 58 56 38 35 31 23 10 351 354 348 358 9 359 354 349 345 344 346
108 96 97 128 118 122 99 88 66 51 62 65 57 50 46 41 29 25 29 57 59 43 23 18 14 11 14 360 349 4 3 353 349 350 346 349 352 357
113 85 85 107 106 116 105 62 51 53 59 60 55 47 39 36 41 34 30 24 18 6 11 20 17 17 9 4 16 7 7 360 355 358 352 346 350 344
146 129 135 122 104 93 88 71 73 78 69 59 51 51 48 49 45 38 38 32 29 12 10 12 13 9 6 9 6 6 2 351 353 356 348 336 332 337
165 144 132 133 107 107 109 91 69 73 69 71 65 57 53 49 47 44 35 34 26 20 14 10 9 4 7 16 7 4 355 345 348 343 345 334 324 326
103 160 130 121 105 108 103 108 88 80 75 78 68 60 51 49 42 37 32 26 21 21 17 13 11 11 1 351 346 342 339 348 345 341 337 330 320 319
151 134 126 121 115 107 105 95 101 91 71 69 66 56 49 45 41 35 30 23 17 13 10 13 14 13 6 342 321 332 346 343 343 335 332 327 322 321
133 126 130 123 116 111 106 91 94 98 96 77 54 43 48 41 36 30 21 18 14 12 6 3 356 346 349 350 340 334 332 340 336 331 330 327 328 326
134 126 121 129 126 122 123 92 107 107 98 77 54 41 41 35 34 26 22 16 11 8 1 351 356 354 349 342 332 328 327 330 335 335 327 322 319 313
128 131 135 142 148 151 134 115 109 113 83 53 42 34 35 35 21 14 15 17 13 4 357 346 345 348 343 338 332 326 328 330 329 329 328 328 326 320